P/2014 U2 ( Kowalski )

Japanese version
Home page
Updated on March 15, 2015

---------------------------------------------------------------------

* Profile

Discovery Date October 18, 2014
Magnitude 18.1 mag
Discoverer R. A. Kowalski (Catalina Sky Survey)

* Pictures

* Orbital Elements

Epoch 2014 Sept. 20.0 TT = JDT 2456920.5
T 2014 Oct. 7.14818 TT                                  MPCW
q   1.1642927            (2000.0)            P               Q
n   0.19625269     Peri.   35.24910     +0.85294028     -0.52193622
a   2.9326415      Node   356.18192     +0.44397853     +0.73409413
e   0.6029884      Incl.    7.49563     +0.27454678     +0.43438277
P   5.02
From 151 observations 2014 Oct. 18-2015 Jan. 18, mean residual 0".6.

* Magnitudes Graph

        m1 = 19.0 + 5 log d + 10.0 log r(t - 30)

---------------------------------------------------------------------

The orbital elements are published on M.P.E.C. 2015-B177.
The magnitudes graphs are made with Comet for Windows.

---------------------------------------------------------------------

Copyright(C) Seiichi Yoshida (comet@aerith.net). All rights reserved.